Location: Newark
(33.6439°N, 114.9881°W)
Time: 11:24:19
(UTC+00:00)

Transit 2A Rocket - Pass Details

Date: 27 August 2019
Orbit: 592 x 911 km, 66.7° (Epoch: 22 September)

Event Time Altitude Azimuth Distance (km) Brightness Sun altitude
Rises 09:51:49 0° 350° (N) 2,954 8.5 -36.4°
Reaches altitude 10° 09:54:52 10° 10° (N) 1,995 7.7 -36.0°
Maximum altitude 09:57:50 17° 53° (NE) 1,534 7.2 -35.6°
Enters shadow 09:58:17 17° 60° (ENE) 1,540 7.2 -35.5°
